GW1546 Weather Reports


Display with metric or nautical units.
time (UTC)temp
F
wind
direction
speed
MPH
gust
MPH
rain 1hr
in
rain 24hr
in
rain mn
in
humidity
%
barometer
mb
20260904014240 76 173 0.0 0.0 0.00 0.00 0.00 99 989.5
20260904013613 76 175 1.0 1.0 0.00 0.00 0.00 99 989.5
20260904013043 76 176 0.0 1.0 0.00 0.00 0.00 99 989.5
20260904012419 76 176 0.0 1.0 0.00 0.00 0.00 99 989.1
20260904011825 76 174 0.0 1.0 0.00 0.00 0.00 99 989.1
20260904010009 76 180 0.0 1.0 0.00 0.00 0.00 99 989.1
20260904005444 77 184 0.0 1.0 0.00 0.00 0.00 99 989.1
20260904004806 77 194 0.0 1.0 0.00 0.00 0.00 99 989.1
20260904004242 77 193 0.0 1.0 0.00 0.00 0.00 99 989.1
20260904002445 78 220 0.0 1.0 0.00 0.00 0.00 98 988.4
20260904001848 78 221 0.0 1.0 0.00 0.00 0.00 98 988.4
20260904001236 78 224 1.0 1.0 0.00 0.00 0.00 98 988.4
20260904000641 78 244 0.0 1.0 0.00 0.00 0.00 97 988.4
20260904000015 78 199 0.0 2.0 0.00 0.00 0.00 97 988.4
20260903235440 79 178 1.0 2.0 0.00 0.00 0.00 96 988.1
20260903234828 79 176 1.0 1.0 0.00 0.00 0.00 96 988.4
20260903234218 79 245 0.0 0.0 0.00 0.00 0.00 95 988.1
20260903233618 80 251 0.0 1.0 0.00 0.00 0.00 95 988.4
20260903232431 80 183 1.0 1.0 0.00 0.00 0.00 94 987.8
20260903231236 81 154 1.0 2.0 0.00 0.00 0.00 92 987.8
20260903230034 82 217 0.0 1.0 0.00 0.00 0.00 91 987.8
20260903225421 82 308 0.0 1.0 0.00 0.00 0.00 90 987.8
20260903224821 83 250 0.0 1.0 0.00 0.00 0.00 88 987.4
20260903224246 83 243 0.0 1.0 0.00 0.00 0.00 88 987.8
20260903221840 86 230 1.0 2.0 0.00 0.00 0.00 84 987.4
20260903221234 87 230 1.0 1.0 0.00 0.00 0.00 78 987.1
20260903220619 89 230 1.0 2.0 0.00 0.00 0.00 74 987.4
20260903220026 90 231 0.0 1.0 0.00 0.00 0.00 74 987.1
20260903215411 91 227 2.0 2.0 0.00 0.00 0.00 72 987.1
20260903214833 92 235 1.0 1.0 0.00 0.00 0.00 70 987.1
20260903214212 92 257 0.0 2.0 0.00 0.00 0.00 69 987.1
20260903213610 92 264 1.0 2.0 0.00 0.00 0.00 68 987.4
20260903213019 93 271 0.0 2.0 0.00 0.00 0.00 66 987.4
20260903212434 92 259 0.0 1.0 0.00 0.00 0.00 68 987.4
20260903211834 92 279 0.0 1.0 0.00 0.00 0.00 67 987.4
20260903211243 92 245 0.0 1.0 0.00 0.00 0.00 65 987.4
20260903210618 93 276 1.0 2.0 0.00 0.00 0.00 64 987.8
20260903210020 93 276 0.0 2.0 0.00 0.00 0.00 66 987.8
20260903205412 94 292 1.0 2.0 0.00 0.00 0.00 64 987.8
20260903204849 94 232 1.0 2.0 0.00 0.00 0.00 64 987.8
20260903204243 94 281 1.0 2.0 0.00 0.00 0.00 64 987.8
20260903203628 93 242 0.0 1.0 0.00 0.00 0.00 64 987.8
20260903203045 94 279 1.0 2.0 0.00 0.00 0.00 64 988.1
20260903202421 91 282 0.0 1.0 0.00 0.00 0.00 70 988.1
20260903201833 93 240 1.0 2.0 0.00 0.00 0.00 65 988.1
20260903201246 93 280 1.0 2.0 0.00 0.00 0.00 65 988.1
20260903200635 94 270 1.0 3.0 0.00 0.00 0.00 65 988.1
20260903200012 95 254 1.0 2.0 0.00 0.00 0.00 63 988.1
20260903195434 95 245 1.0 2.0 0.00 0.00 0.00 65 988.1
20260903194843 94 249 1.0 2.0 0.00 0.00 0.00 65 988.1
20260903194213 94 243 1.0 2.0 0.00 0.00 0.00 65 988.1
20260903193639 94 267 0.0 2.0 0.00 0.00 0.00 66 988.4
20260903193025 93 268 1.0 1.0 0.00 0.00 0.00 65 988.8
20260903192439 94 279 0.0 2.0 0.00 0.00 0.00 66 988.8
20260903191821 93 256 1.0 2.0 0.00 0.00 0.00 67 988.8
20260903191212 92 269 3.0 3.0 0.00 0.00 0.00 68 988.8
20260903190628 92 275 2.0 3.0 0.00 0.00 0.00 69 988.8
20260903190031 92 259 1.0 2.0 0.00 0.00 0.00 69 989.1
20260903185438 91 291 1.0 2.0 0.00 0.00 0.00 71 989.1
20260903184239 94 257 1.0 2.0 0.00 0.00 0.00 64 989.1
20260903183621 91 293 1.0 2.0 0.00 0.00 0.00 71 989.5
20260903182434 92 322 2.0 3.0 0.00 0.00 0.00 71 989.5
20260903181836 94 316 2.0 3.0 0.00 0.00 0.00 64 989.5
20260903181249 94 112 1.0 2.0 0.00 0.00 0.00 61 989.5
20260903180610 96 281 3.0 4.0 0.00 0.00 0.00 58 989.5
20260903180039 96 279 3.0 4.0 0.00 0.00 0.00 58 989.5
20260903175445 95 139 1.0 3.0 0.00 0.00 0.00 56 989.5
20260903174825 96 165 2.0 3.0 0.00 0.00 0.00 55 989.5
20260903174239 96 46 1.0 2.0 0.00 0.00 0.00 55 989.5
20260903173015 95 46 2.0 2.0 0.00 0.00 0.00 54 989.8
20260903172433 95 46 2.0 3.0 0.00 0.00 0.00 55 989.8
20260903171826 96 47 0.0 2.0 0.00 0.00 0.00 54 989.8
20260903170014 93 61 1.0 2.0 0.00 0.00 0.00 64 989.8
20260903165428 94 50 1.0 3.0 0.00 0.00 0.00 63 990.1
20260903164826 96 67 0.0 2.0 0.00 0.00 0.00 60 990.1
20260903164224 94 67 1.0 2.0 0.00 0.00 0.00 62 990.1
20260903163636 94 73 1.0 2.0 0.00 0.00 0.00 63 990.1
20260903163045 94 70 1.0 3.0 0.00 0.00 0.00 65 990.1
20260903162415 93 66 1.0 2.0 0.00 0.00 0.00 64 990.1
20260903161805 94 66 2.0 3.0 0.00 0.00 0.00 62 990.1
20260903161249 95 64 1.0 1.0 0.00 0.00 0.00 61 990.1
20260903155408 92 61 0.0 0.0 0.00 0.00 0.00 75 990.8
20260903154825 91 64 0.0 1.0 0.00 0.00 0.00 75 990.5
20260903154226 91 62 1.0 1.0 0.00 0.00 0.00 73 990.5
20260903153632 90 63 0.0 1.0 0.00 0.00 0.00 75 990.5
20260903153007 89 55 0.0 1.0 0.00 0.00 0.00 77 990.5
20260903152413 89 55 0.0 1.0 0.00 0.00 0.00 78 990.8
20260903151835 88 55 0.0 1.0 0.00 0.00 0.00 78 990.5
20260903151219 87 57 0.0 2.0 0.00 0.00 0.00 78 990.8
20260903150626 86 55 0.0 1.0 0.00 0.00 0.00 80 990.8
20260903150044 86 55 0.0 2.0 0.00 0.00 0.00 81 990.8
20260903145437 86 65 1.0 1.0 0.00 0.00 0.00 80 990.5
20260903144818 85 64 0.0 1.0 0.00 0.00 0.00 81 990.8
20260903144213 83 60 1.0 2.0 0.00 0.00 0.00 84 990.8
20260903143651 82 56 0.0 1.0 0.00 0.00 0.00 85 990.8
20260903143033 82 56 0.0 1.0 0.00 0.00 0.00 85 990.8
20260903142447 82 63 0.0 1.0 0.00 0.00 0.00 86 990.8
20260903141841 80 63 0.0 1.0 0.00 0.00 0.00 88 990.8
20260903141221 78 63 0.0 1.0 0.00 0.00 0.00 91 991.1
20260903140647 78 58 0.0 1.0 0.00 0.00 0.00 92 991.1
20260903140010 77 59 0.0 1.0 0.00 0.00 0.00 93 991.1
20260903135422 76 86 3.0 4.0 0.00 0.00 0.00 93 991.1
20260903134229 76 77 1.0 2.0 0.00 0.00 0.00 94 991.1
20260903133643 75 9 0.0 2.0 0.00 0.00 0.00 95 991.1
20260903133012 75 47 0.0 2.0 0.00 0.00 0.00 95 991.5
20260903132442 75 67 0.0 1.0 0.00 0.00 0.00 96 991.1
20260903131849 74 15 2.0 3.0 0.00 0.00 0.00 96 991.8
20260903131223 74 69 0.0 1.0 0.00 0.00 0.00 96 991.5
20260903130610 73 82 0.0 1.0 0.00 0.00 0.00 97 991.8
20260903130019 73 51 1.0 2.0 0.00 0.00 0.00 98 991.8
20260903125448 72 71 0.0 3.0 0.00 0.00 0.00 99 991.8
20260903124840 72 105 0.0 2.0 0.00 0.00 0.00 99 991.8
20260903123623 71 75 1.0 1.0 0.00 0.00 0.00 99 992.2
20260903123015 71 95 0.0 2.0 0.00 0.00 0.00 99 992.2
20260903122448 71 125 0.0 2.0 0.00 0.00 0.00 99 991.8
20260903121846 71 94 1.0 1.0 0.00 0.00 0.00 99 991.8
20260903121235 70 130 0.0 4.0 0.00 0.00 0.00 99 991.8
20260903120606 70 166 0.0 1.0 0.00 0.00 0.00 99 991.8
20260903115439 70 141 1.0 1.0 0.00 0.00 0.00 99 991.8
20260903114815 70 135 0.0 1.0 0.00 0.00 0.00 99 991.8
20260903114218 70 50 1.0 1.0 0.00 0.00 0.00 99 991.8
20260903113613 70 123 0.0 2.0 0.00 0.00 0.00 99 991.8
20260903113040 70 132 0.0 1.0 0.00 0.00 0.00 99 991.8
20260903112442 70 118 0.0 1.0 0.00 0.00 0.00 99 991.8
20260903111840 70 169 1.0 2.0 0.00 0.00 0.00 99 991.5
20260903111238 69 183 1.0 2.0 0.00 0.00 0.00 99 991.5
20260903110016 69 163 1.0 2.0 0.00 0.00 0.00 99 991.1
20260903104807 70 179 0.0 1.0 0.00 0.00 0.00 99 991.1
20260903103014 70 101 0.0 1.0 0.00 0.00 0.00 99 990.8
20260903102426 70 84 1.0 1.0 0.00 0.00 0.00 99 990.8
20260903101226 70 193 2.0 2.0 0.00 0.00 0.00 99 990.8
20260903100036 70 121 0.0 1.0 0.00 0.00 0.00 99 990.5
20260903095419 70 82 0.0 1.0 0.00 0.00 0.00 99 990.5
20260903094811 70 153 1.0 1.0 0.00 0.00 0.00 99 990.8
20260903093017 70 106 0.0 1.0 0.00 0.00 0.00 99 990.8
20260903092413 70 127 1.0 1.0 0.00 0.00 0.00 99 990.5
20260903091837 70 174 1.0 2.0 0.00 0.00 0.00 99 990.5
20260903091237 70 173 0.0 1.0 0.00 0.00 0.00 99 990.5
20260903090638 70 178 0.0 1.0 0.00 0.00 0.00 99 990.5
20260903090044 70 138 0.0 1.0 0.00 0.00 0.00 99 990.8
20260903085441 70 150 0.0 1.0 0.00 0.00 0.00 99 990.5
20260903084817 70 102 0.0 1.0 0.00 0.00 0.00 99 990.8
20260903084237 71 96 0.0 1.0 0.00 0.00 0.00 99 990.8
20260903083050 70 97 1.0 1.0 0.00 0.00 0.00 99 990.5
20260903082447 71 113 0.0 0.0 0.00 0.00 0.00 99 990.8
20260903081849 71 73 1.0 2.0 0.00 0.00 0.00 99 990.5
20260903081206 71 118 0.0 0.0 0.00 0.00 0.00 99 990.5
20260903080613 71 106 1.0 1.0 0.00 0.00 0.00 99 990.8
20260903080026 71 108 1.0 1.0 0.00 0.00 0.00 99 990.8
20260903075430 71 104 0.0 0.0 0.00 0.00 0.00 99 990.8
20260903074832 71 119 0.0 1.0 0.00 0.00 0.00 99 990.5
20260903074223 71 161 1.0 1.0 0.00 0.00 0.00 99 990.5
20260903073605 71 149 0.0 1.0 0.00 0.00 0.00 99 990.8
20260903072436 71 96 0.0 1.0 0.00 0.00 0.00 99 990.5
20260903071845 71 102 0.0 1.0 0.00 0.00 0.00 99 990.5
20260903071242 71 115 1.0 1.0 0.00 0.00 0.00 99 990.5
20260903070626 71 106 1.0 2.0 0.00 0.00 0.00 99 990.5
20260903065443 71 169 1.0 1.0 0.00 0.00 0.00 99 990.5
20260903064840 72 119 0.0 1.0 0.00 0.00 0.00 99 990.5
20260903064210 71 143 1.0 1.0 0.00 0.00 0.00 99 990.5
20260903063612 72 160 1.0 2.0 0.00 0.00 0.00 99 990.5
20260903063035 71 147 0.0 1.0 0.00 0.00 0.00 99 990.5
20260903062413 71 160 1.0 1.0 0.00 0.00 0.00 99 990.5
20260903061826 71 170 1.0 2.0 0.00 0.00 0.00 99 990.5
20260903061224 72 153 1.0 1.0 0.00 0.00 0.00 99 990.8
20260903060643 72 132 1.0 1.0 0.00 0.00 0.00 99 990.8
20260903060022 72 114 0.0 0.0 0.00 0.00 0.00 99 990.5
20260903055421 72 122 1.0 1.0 0.00 0.00 0.00 99 990.5
20260903054841 72 131 0.0 1.0 0.00 0.00 0.00 99 990.8
20260903054241 72 105 1.0 1.0 0.00 0.00 0.00 99 990.5
20260903053630 72 132 0.0 1.0 0.00 0.00 0.00 99 990.5
20260903053045 72 170 0.0 1.0 0.00 0.00 0.00 99 990.5
20260903052414 72 178 1.0 1.0 0.00 0.00 0.00 99 990.5
20260903051837 72 167 1.0 2.0 0.00 0.00 0.00 99 990.5
20260903051246 72 174 1.0 2.0 0.00 0.00 0.00 99 990.5
20260903050044 72 144 1.0 1.0 0.00 0.00 0.00 99 990.5
20260903045423 72 133 0.0 1.0 0.00 0.00 0.00 99 990.5
20260903044820 72 141 0.0 1.0 0.00 0.00 0.00 99 990.5
20260903044241 72 166 1.0 1.0 0.00 0.00 0.00 99 990.5
20260903043608 72 150 0.0 1.0 0.00 0.00 0.00 99 990.5
20260903042436 72 157 1.0 2.0 0.00 0.00 0.00 99 990.8
20260903041809 73 175 1.0 2.0 0.00 0.00 0.00 99 990.5
20260903040636 73 165 1.0 2.0 0.00 0.00 0.00 99 990.8
20260903033647 74 136 1.0 1.0 0.00 0.00 0.00 99 990.5
20260903033021 74 111 0.0 1.0 0.00 0.00 0.00 99 990.5
20260903032429 74 112 0.0 1.0 0.00 0.00 0.00 99 990.5
20260903031847 74 137 1.0 1.0 0.00 0.00 0.00 99 990.5
20260903031227 74 119 1.0 1.0 0.00 0.00 0.00 99 990.8
20260903030031 74 147 0.0 1.0 0.00 0.00 0.00 99 990.8
20260903025421 74 167 0.0 2.0 0.00 0.00 0.00 99 990.8
20260903024819 74 131 0.0 1.0 0.00 0.00 0.00 99 990.8
20260903024240 74 149 0.0 1.0 0.00 0.00 0.00 99 990.8
20260903023031 74 154 0.0 2.0 0.00 0.00 0.00 99 990.8
20260903022413 74 181 1.0 3.0 0.00 0.00 0.00 99 990.8
20260903021832 74 166 1.0 2.0 0.00 0.00 0.00 99 990.8
20260903021225 74 167 1.0 1.0 0.00 0.00 0.00 99 990.8
20260903020614 74 174 2.0 2.0 0.00 0.00 0.00 99 990.8
20260903020031 74 200 1.0 2.0 0.00 0.00 0.00 99 990.8
20260903014825 74 213 1.0 2.0 0.00 0.00 0.00 99 990.8